Weather History for Glenwood, MN

Change the Weather History Date:

Saturday, November 10, 2012

  Actual Average Record
Temperature  
Mean Temperature 42 °F -  
Max Temperature 48 °F 38 °F 67 °F (1954)
Min Temperature 35 °F 22 °F -1 °F (1979)
Degree Days  
Heating Degree Days 22    
Moisture  
Dew Point 42 °F    
Average Humidity 97    
Maximum Humidity 100    
Minimum Humidity 87    
Precipitation  
Precipitation 0.43 in - - ()
Sea Level Pressure  
Sea Level Pressure 29.59 in    
Wind  
Wind Speed 17 mph (East)    
Max Wind Speed 23 mph    
Max Gust Speed 32 mph    
Visibility 2 miles    
Events Fog , Rain , Thunderstorm    
Averages and records for this station are not official NWS values.
T = Trace of Precipitation, MM = Missing Value Source: NWS Daily Summary

Daily Weather History Graph

Daily Weather History Graph

Search for Another Location

Airport:

Trip Planner

Search our weather history database for the weather conditions in past years. The results will help you decide how hot, cold, wet, or windy it might be!

Date:

Astronomy

Nov. 10, 2012 Rise Set
Actual Time 7:14 AM CST 4:55 PM CST
Civil Twilight 6:42 AM CST 5:27 PM CST
Nautical Twilight 6:06 AM CST 6:02 PM CST
Astronomical Twilight 5:32 AM CST 6:37 PM CST
Moon 3:10 AM CST (11/10) 2:51 PM CST (11/10)
Length of Visible Light 10h 44m
Length of Day
9h 41m
Waning Crescent, 14% of the Moon is Illuminated
Nov 10
Waning Crescent
Nov 13
New
Nov 20
First Quarter
Nov 28
Full
Dec 6
Last Quarter

Hourly Weather History & Observations

Time (CST) Temp. Windchill Dew Point Humidity Pressure Visibility Wind Dir Wind Speed Gust Speed Precip Events Conditions
12:13 AM 39.2 °F 29.3 °F 35.6 °F 87% 29.87 in 10.0 mi East 20.7 mph 24.2 mph N/A   Overcast
12:33 AM 39.2 °F 28.7 °F 35.6 °F 87% 29.84 in 10.0 mi East 23.0 mph 27.6 mph N/A   Overcast
12:53 AM 39.2 °F 29.0 °F 37.4 °F 93% 29.84 in 10.0 mi East 21.9 mph 25.3 mph N/A   Overcast
1:13 AM 39.2 °F 29.0 °F 37.4 °F 93% 29.82 in 7.0 mi East 21.9 mph 28.8 mph N/A   Overcast
1:33 AM 39.2 °F 29.0 °F 37.4 °F 93% 29.81 in 3.0 mi East 21.9 mph 26.5 mph N/A   Overcast
1:53 AM 39.2 °F 28.7 °F 37.4 °F 93% 29.80 in 5.0 mi East 23.0 mph - N/A   Overcast
2:13 AM 39.2 °F 29.3 °F 37.4 °F 93% 29.79 in 7.0 mi East 20.7 mph 26.5 mph N/A   Overcast
2:33 AM 39.2 °F 29.0 °F 37.4 °F 93% 29.77 in 7.0 mi East 21.9 mph 26.5 mph N/A   Overcast
2:53 AM 39.2 °F 29.3 °F 37.4 °F 93% 29.77 in 4.0 mi East 20.7 mph - N/A   Overcast
3:13 AM 39.2 °F 29.8 °F 37.4 °F 93% 29.75 in 2.5 mi East 18.4 mph 32.2 mph N/A   Overcast
3:33 AM 39.2 °F 29.3 °F 37.4 °F 93% 29.74 in 2.5 mi East 20.7 mph 26.5 mph N/A   Overcast
3:54 AM 39.2 °F 29.3 °F 39.2 °F 100% 29.73 in 2.5 mi East 20.7 mph 26.5 mph N/A   Overcast
4:13 AM 39.2 °F 29.0 °F 39.2 °F 100% 29.72 in 2.5 mi East 21.9 mph 26.5 mph N/A Thunderstorm Unknown
4:33 AM 39.2 °F 29.6 °F 39.2 °F 100% 29.71 in 2.0 mi East 19.6 mph 27.6 mph N/A Rain Light Rain
4:54 AM 39.2 °F 29.8 °F 39.2 °F 100% 29.71 in 2.5 mi East 18.4 mph 25.3 mph N/A   Overcast
5:13 AM 39.2 °F 29.6 °F 39.2 °F 100% 29.70 in 2.0 mi East 19.6 mph 25.3 mph N/A   Overcast
5:33 AM 39.2 °F 30.2 °F 39.2 °F 100% 29.70 in 2.0 mi East 17.3 mph 24.2 mph N/A   Drizzle
5:54 AM 39.2 °F 30.2 °F 39.2 °F 100% 29.69 in 2.0 mi East 17.3 mph 24.2 mph N/A   Light Drizzle
6:13 AM 41.0 °F 32.5 °F 39.2 °F 93% 29.69 in 1.8 mi East 17.3 mph 23.0 mph N/A   Drizzle
6:33 AM 41.0 °F 33.1 °F 39.2 °F 93% 29.69 in 2.0 mi East 15.0 mph - N/A   Drizzle
6:53 AM 41.0 °F 33.1 °F 39.2 °F 93% 29.69 in 1.8 mi East 15.0 mph - N/A   Light Drizzle
7:13 AM 41.0 °F 32.2 °F 41.0 °F 100% 29.67 in 1.5 mi East 18.4 mph - N/A   Drizzle
7:33 AM 41.0 °F 31.9 °F 41.0 °F 100% 29.66 in 2.0 mi East 19.6 mph - N/A   Light Drizzle
7:53 AM 42.8 °F 34.8 °F 41.0 °F 93% 29.66 in 2.0 mi East 17.3 mph - N/A   Drizzle
8:13 AM 42.8 °F 34.3 °F 41.0 °F 93% 29.65 in 1.8 mi East 19.6 mph 24.2 mph N/A   Drizzle
8:33 AM 42.8 °F 34.5 °F 41.0 °F 93% 29.64 in 1.2 mi East 18.4 mph 26.5 mph N/A   Light Drizzle
8:53 AM 42.8 °F 34.3 °F 41.0 °F 93% 29.63 in 1.2 mi East 19.6 mph 26.5 mph N/A   Light Drizzle
9:13 AM 42.8 °F 34.3 °F 41.0 °F 93% 29.62 in 1.5 mi East 19.6 mph 24.2 mph N/A   Light Drizzle
9:34 AM 42.8 °F 34.5 °F 42.8 °F 100% 29.60 in 1.8 mi East 18.4 mph 26.5 mph N/A   Overcast
9:53 AM 42.8 °F 34.5 °F 42.8 °F 100% 29.59 in 1.5 mi East 18.4 mph 24.2 mph N/A   Overcast
10:13 AM 42.8 °F 34.5 °F 42.8 °F 100% 29.59 in 1.2 mi East 18.4 mph 25.3 mph N/A   Overcast
10:34 AM 42.8 °F 35.1 °F 42.8 °F 100% 29.58 in 1.0 mi East 16.1 mph 23.0 mph N/A   Overcast
10:53 AM 42.8 °F 34.8 °F 42.8 °F 100% 29.57 in 1.0 mi East 17.3 mph 24.2 mph N/A   Overcast
11:13 AM 44.6 °F 37.4 °F 42.8 °F 93% 29.57 in 1.0 mi East 16.1 mph - N/A   Overcast
11:34 AM 44.6 °F 37.8 °F 42.8 °F 93% 29.56 in 0.8 mi East 15.0 mph - N/A   Overcast
11:53 AM 44.6 °F 38.8 °F 42.8 °F 93% 29.55 in 0.8 mi East 11.5 mph - N/A   Overcast
12:13 PM 44.6 °F 38.1 °F 44.6 °F 100% 29.54 in 0.8 mi East 13.8 mph - N/A   Overcast
12:34 PM 44.6 °F 38.4 °F 44.6 °F 100% 29.53 in 0.8 mi East 12.7 mph - N/A   Overcast
12:53 PM 44.6 °F 38.1 °F 44.6 °F 100% 29.52 in 0.5 mi East 13.8 mph - N/A Fog Fog
1:13 PM 44.6 °F 38.4 °F 44.6 °F 100% 29.52 in 0.5 mi East 12.7 mph - N/A Fog Fog
1:34 PM 44.6 °F 38.4 °F 44.6 °F 100% 29.51 in 0.5 mi East 12.7 mph 17.3 mph N/A Fog Fog
1:53 PM 46.4 °F 40.4 °F 44.6 °F 93% 29.50 in 0.8 mi East 13.8 mph - N/A   Overcast
2:13 PM 46.4 °F 40.7 °F 46.4 °F 100% 29.49 in 0.2 mi East 12.7 mph - N/A Fog Fog
2:33 PM 46.4 °F 41.1 °F 46.4 °F 100% 29.49 in 0.2 mi East 11.5 mph - N/A Fog Fog
2:53 PM 46.4 °F 40.7 °F 46.4 °F 100% 29.48 in 0.2 mi East 12.7 mph - N/A Fog Fog
3:13 PM 46.4 °F 41.1 °F 46.4 °F 100% 29.47 in 0.2 mi ENE 11.5 mph - N/A Fog Fog
3:33 PM 46.4 °F 41.9 °F 46.4 °F 100% 29.48 in 0.2 mi ENE 9.2 mph - N/A Fog Fog
3:53 PM 46.4 °F 42.4 °F 46.4 °F 100% 29.48 in 0.2 mi ENE 8.1 mph - N/A Fog Fog
4:14 PM 46.4 °F 41.5 °F 46.4 °F 100% 29.49 in 0.2 mi East 10.4 mph - N/A Fog Fog
4:33 PM 46.4 °F 41.5 °F 46.4 °F 100% 29.49 in 0.2 mi East 10.4 mph - N/A Fog Fog
4:53 PM 46.4 °F 41.9 °F 46.4 °F 100% 29.49 in 0.2 mi East 9.2 mph - N/A Fog Fog
5:14 PM 46.4 °F 42.4 °F 46.4 °F 100% 29.50 in 0.2 mi East 8.1 mph - N/A Fog Fog
5:33 PM 46.4 °F 44.3 °F 46.4 °F 100% 29.51 in 0.2 mi East 4.6 mph - N/A Fog Fog
5:53 PM 46.4 °F 45.2 °F 46.4 °F 100% 29.49 in 0.2 mi ENE 3.5 mph - N/A Fog Fog
6:14 PM 46.4 °F 44.3 °F 46.4 °F 100% 29.48 in 0.2 mi East 4.6 mph - N/A Fog Fog
6:33 PM 46.4 °F 45.2 °F 46.4 °F 100% 29.47 in 0.2 mi East 3.5 mph - N/A Fog Fog
6:53 PM 48.2 °F - 46.4 °F 93% 29.45 in 0.2 mi East 3.5 mph - N/A Fog Fog
7:14 PM 48.2 °F - 48.2 °F 100% 29.45 in 0.2 mi Calm Calm - N/A Fog , Thunderstorm Fog
7:33 PM 48.2 °F - 46.4 °F 93% 29.44 in 0.2 mi East 3.5 mph - N/A Fog , Thunderstorm Fog
7:53 PM 48.2 °F - 48.2 °F 100% 29.44 in 0.5 mi Calm Calm - 0.03 in Rain , Thunderstorm Light Thunderstorms and Rain
8:13 PM 48.2 °F - 48.2 °F 100% 29.50 in 0.8 mi SSW 13.8 mph 19.6 mph 0.15 in Rain , Thunderstorm Heavy Thunderstorms and Rain
8:34 PM 48.2 °F - 48.2 °F 100% 29.46 in 2.0 mi SSE 3.5 mph - 0.25 in Rain Rain
8:53 PM 46.4 °F 41.9 °F 46.4 °F 100% 29.45 in 1.8 mi ESE 9.2 mph - 0.35 in Rain , Thunderstorm Thunderstorms and Rain
9:13 PM 46.4 °F 42.4 °F 46.4 °F 100% 29.46 in 2.0 mi SSE 8.1 mph - 0.04 in Rain , Thunderstorm Rain
9:34 PM 46.4 °F 41.9 °F 46.4 °F 100% 29.47 in 2.0 mi South 9.2 mph - 0.04 in Rain Rain
10:13 PM 46.4 °F 41.1 °F 46.4 °F 100% 29.46 in 2.0 mi SSW 11.5 mph - 0.01 in Rain Light Rain
10:34 PM 44.6 °F 36.9 °F 44.6 °F 100% 29.47 in 0.2 mi West 18.4 mph 21.9 mph 0.01 in   Overcast
10:53 PM 42.8 °F 34.0 °F 42.8 °F 100% 29.48 in 0.5 mi West 20.7 mph 24.2 mph 0.01 in   Overcast
11:13 PM 39.2 °F 29.0 °F 39.2 °F 100% 29.48 in 3.0 mi West 21.9 mph 26.5 mph N/A   Overcast
11:34 PM 37.4 °F 26.4 °F 37.4 °F 100% 29.51 in 5.0 mi West 23.0 mph 27.6 mph N/A   Overcast
11:53 PM 35.6 °F 24.8 °F 35.6 °F 100% 29.52 in 4.0 mi West 19.6 mph 27.6 mph N/A   Overcast